User: anonymous   Login
Location: Unspecified
(0.0000°N, 0.0000°E)
Time: 12:38:21
(UTC+02:00)
Language:

SJ-6B - Orbit

View from above orbital plane
View from above orbital plane
View from above satellite
View from above satellite

Ground track
Ground track

The orbit data is extracted from the following two-line orbital elements,

1 28415U 04035C   16205.66272773  .00000700  00000-0  51382-4 0  9996
2 28415  97.7761 226.5920 0053634 154.1125 206.2803 15.05781810649135
Epoch (UTC): 23 July 2016 15:54:19
Eccentricity: 0.0053634
inclination: 97.7761°
perigee height: 512 km
apogee height: 586 km
right ascension of ascending node: 226.5920°
argument of perigee: 154.1125°
revolutions per day: 15.05781810
mean anomaly at epoch: 206.2803°
orbit number at epoch: 64913

The dashed part of the orbit path shows where the satellite is in the earth's shadow,  

DLR